User: anonymous   Login
Location: Kunchanapalle
(16.4623°N, 80.6176°E)
Time: 15:13:03
(UTC+00:00)
Language:

Cosmos 1932 - Orbit

View from above orbital plane
View from above orbital plane
View from above satellite
View from above satellite

Ground track
Ground track

The orbit data is extracted from the following two-line orbital elements,

1 18957U 88019A   20296.21669707 -.00000073  00000-0  14235-4 0  9993
2 18957  65.0465  31.4011 0054582 224.2082 135.4609 13.79685351644394
Epoch (UTC): 22 October 2020 05:12:02
Eccentricity: 0.0054582
inclination: 65.0465°
perigee height: 925 km
apogee height: 1005 km
right ascension of ascending node: 31.4011°
argument of perigee: 224.2082°
revolutions per day: 13.79685351
mean anomaly at epoch: 135.4609°
orbit number at epoch: 64439

The dashed part of the orbit path shows where the satellite is in the earth's shadow,  

DLR